Weather History for KISO - October, 2013

Change the Weather History Date:

Tuesday, October 8, 2013

  Actual Average Record
Temperature  
Mean Temperature 63 °F -  
Max Temperature 70 °F 75 °F 91 °F (2007)
Min Temperature 56 °F 54 °F 33 °F (1996)
Degree Days  
Heating Degree Days 2    
Growing Degree Days 13 (Base 50)    
Moisture  
Dew Point 58 °F    
Average Humidity 87    
Maximum Humidity 94    
Minimum Humidity 77    
Precipitation  
Precipitation 0.04 in - - ()
Sea Level Pressure  
Sea Level Pressure 30.07 in    
Wind  
Wind Speed 11 mph (North)    
Max Wind Speed 20 mph    
Max Gust Speed 29 mph    
Visibility 9 miles    
Events Rain    
Averages and records for this station are not official NWS values.
T = Trace of Precipitation, MM = Missing Value Source: NWS Daily Summary

Daily Weather History Graph

Daily Weather History Graph

Search for Another Location

Airport or City:

Trip Planner

Search our weather history database for the weather conditions in past years. The results will help you decide how hot, cold, wet, or windy it might be!

Date:

Astronomy

Oct. 08, 2013 Rise Set
Actual Time 7:11 AM EDT 6:44 PM EDT
Civil Twilight 6:45 AM EDT 7:09 PM EDT
Nautical Twilight 6:16 AM EDT 7:39 PM EDT
Astronomical Twilight 5:46 AM EDT 8:08 PM EDT
Moon 10:55 AM EDT (10/8) 9:27 PM EDT (10/8)
Length of Visible Light 12h 24m
Length of Day
11h 33m
Waxing Crescent, 16% of the Moon is Illuminated
Oct 8
Waxing Crescent
Oct 11
First Quarter
Oct 18
Full
Oct 26
Last Quarter
Nov 3
New

Hourly Weather History & Observations

Time (EDT) Temp. Dew Point Humidity Pressure Visibility Wind Dir Wind Speed Gust Speed Precip Events Conditions
12:15 AM 70.7 °F 68.5 °F 93% 29.96 in 10.0 mi North 10.4 mph - N/A Rain Light Rain
12:35 AM 70.3 °F 68.4 °F 93% 29.96 in 10.0 mi North 9.2 mph 16.1 mph N/A   Overcast
12:55 AM 70.2 °F 67.8 °F 92% 29.96 in 10.0 mi North 10.4 mph - N/A   Overcast
1:15 AM 69.8 °F 66.7 °F 90% 29.95 in 10.0 mi North 12.7 mph 18.4 mph N/A   Overcast
1:35 AM 69.4 °F 66.4 °F 90% 29.96 in 10.0 mi North 9.2 mph - N/A   Overcast
1:55 AM 69.3 °F 66.6 °F 91% 29.97 in 10.0 mi NNE 9.2 mph - N/A   Overcast
2:15 AM 69.1 °F 66.4 °F 91% 29.97 in 10.0 mi NNE 11.5 mph 18.4 mph N/A   Overcast
2:35 AM 69.1 °F 66.2 °F 91% 29.98 in 10.0 mi NNE 11.5 mph - N/A   Overcast
2:55 AM 68.9 °F 66.2 °F 91% 29.97 in 10.0 mi NNE 11.5 mph - N/A   Overcast
3:15 AM 68.9 °F 66.4 °F 92% 29.98 in 10.0 mi North 10.4 mph - N/A   Overcast
3:35 AM 65.5 °F 61.7 °F 88% 29.98 in 10.0 mi NNE 19.6 mph 28.8 mph N/A Rain Light Rain
3:55 AM 63.3 °F 59.0 °F 86% 30.00 in 10.0 mi North 13.8 mph 24.2 mph N/A Rain Light Rain
4:15 AM 61.9 °F 58.5 °F 89% 30.00 in 10.0 mi North 12.7 mph 20.7 mph N/A Rain Light Rain
4:35 AM 61.3 °F 58.3 °F 90% 30.01 in 10.0 mi North 11.5 mph 19.6 mph N/A   Light Drizzle
4:55 AM 61.0 °F 57.6 °F 88% 30.01 in 10.0 mi North 13.8 mph 20.7 mph N/A Rain Rain
5:15 AM 60.6 °F 56.3 °F 86% 30.02 in 10.0 mi North 15.0 mph 18.4 mph 0.01 in Rain Light Rain
5:35 AM 60.3 °F 56.8 °F 88% 30.03 in 10.0 mi North 11.5 mph - 0.01 in   Light Drizzle
5:55 AM 60.1 °F 56.3 °F 87% 30.04 in 10.0 mi NNE 12.7 mph - 0.01 in   Mostly Cloudy
6:15 AM 60.1 °F 55.4 °F 85% 30.05 in 10.0 mi North 11.5 mph - N/A   Mostly Cloudy
6:35 AM 59.5 °F 54.9 °F 84% 30.07 in 10.0 mi North 10.4 mph 17.3 mph N/A   Mostly Cloudy
6:55 AM 59.5 °F 53.8 °F 81% 30.08 in 10.0 mi NNE 10.4 mph 19.6 mph N/A   Overcast
6:56 AM 59.0 °F 53.6 °F 82% 30.08 in 7.0 mi NNE 10.4 mph - N/A   Overcast
7:56 AM 60.8 °F 53.6 °F 77% 30.09 in 10.0 mi NNE 10.4 mph - N/A   Mostly Cloudy
8:56 AM 60.8 °F 53.6 °F 77% 30.11 in 10.0 mi NNE 11.5 mph 16.1 mph N/A   Overcast
9:56 AM 60.8 °F 53.6 °F 77% 30.12 in 10.0 mi NNE 10.4 mph 18.4 mph N/A   Overcast
10:56 AM 60.8 °F 53.6 °F 77% 30.13 in 10.0 mi North 10.4 mph - N/A   Overcast
11:56 AM 60.8 °F 53.6 °F 77% 30.14 in 7.0 mi North 10.4 mph - N/A   Light Drizzle
12:56 PM 60.8 °F 55.4 °F 82% 30.13 in 7.0 mi North 9.2 mph - N/A   Drizzle
1:56 PM 60.8 °F 53.6 °F 77% 30.12 in 7.0 mi North 10.4 mph - N/A   Light Drizzle
2:56 PM 60.8 °F 53.6 °F 77% 30.11 in 10.0 mi North 12.7 mph - N/A   Light Drizzle
3:56 PM 60.8 °F 53.6 °F 77% 30.12 in 10.0 mi North 12.7 mph 20.7 mph N/A   Overcast
4:56 PM 60.8 °F 53.6 °F 77% 30.13 in 10.0 mi North 10.4 mph - N/A   Scattered Clouds
5:56 PM 59.0 °F 55.4 °F 88% 30.13 in 5.0 mi North 11.5 mph - N/A Rain Rain
6:56 PM 59.0 °F 57.2 °F 94% 30.13 in 5.0 mi North 10.4 mph - N/A Rain Rain
7:56 PM 57.2 °F 55.4 °F 94% 30.12 in 7.0 mi North 12.7 mph 18.4 mph N/A   Overcast
8:56 PM 57.2 °F 55.4 °F 94% 30.14 in 10.0 mi North 9.2 mph - N/A   Mostly Cloudy
9:15 PM 57.4 °F 54.9 °F 91% 30.14 in 10.0 mi North 9.2 mph - N/A Rain Light Rain
9:35 PM 57.2 °F 55.2 °F 93% 30.15 in 10.0 mi North 10.4 mph - 0.01 in Rain Light Rain
9:55 PM 56.8 °F 54.9 °F 93% 30.15 in 10.0 mi North 10.4 mph - 0.01 in Rain Light Rain
10:15 PM 56.8 °F 55.0 °F 94% 30.15 in 10.0 mi North 10.4 mph - 0.01 in Rain Light Rain
10:35 PM 56.8 °F 55.2 °F 94% 30.15 in 10.0 mi North 10.4 mph - 0.01 in Rain Light Rain
10:55 PM 57.2 °F 55.4 °F 94% 30.15 in 10.0 mi North 12.7 mph 19.6 mph 0.02 in Rain Rain
11:15 PM 57.2 °F 55.4 °F 94% 30.15 in 10.0 mi North 10.4 mph 18.4 mph N/A Rain Rain
11:35 PM 57.2 °F 55.6 °F 94% 30.15 in 10.0 mi North 11.5 mph 17.3 mph N/A   Light Drizzle
11:55 PM 57.2 °F 55.6 °F 94% 30.13 in 10.0 mi North 13.8 mph - N/A Rain Light Rain